Location: Buckland
(65.9785°N, 161.1281°W)
Time: 03:10:07
(UTC+00:00)

Transit 4A - Pass Details

Date: 30 November 2020
Orbit: 864 x 980 km, 66.8° (Epoch: 26 January)

Event Time Altitude Azimuth Distance (km) Brightness Sun altitude
Rises 18:24:00 0° 188° (S) 3,655 11.4 -9.4°
Reaches altitude 10° 18:26:50 10° 178° (S) 2,721 10.9 -9.2°
Maximum altitude 18:32:14 30° 121° (ESE) 1,682 10.2 -8.7°
Drops below altitude 10° 18:37:41 10° 63° (ENE) 2,743 10.7 -8.3°
Sets 18:40:32 0° 53° (NE) 3,689 11.2 -8.1°
